When you browse on this site, cookies collect data to enhance your experience and personalize the content and advertising you see.
Visit our Privacy Policy to learn more. By continuing to use the site, you agree to this use of cookies and data.
  • Em Portugal
  • Lista de países
  • Para 7 dias
  • Temperatura da água
  • Mapas de satélite
  • Mapa do tempo
  • Widgets de tempo
  • user-avatar
    Iniciar Sessão

    Previsão horária em Makeevka

    Hoje, 25 Maio, Sábado

    Tempo Temperatura Precipitação Vento Pressão Humidade
    00:00 +18°C° 0.1 mm 2 m/s 740 mmHg 79%
    01:00 +17°C° 0 mm 2 m/s 740 mmHg 78%
    02:00 +17°C° 0 mm 2 m/s 739 mmHg 77%
    03:00 +16°C° 0 mm 1 m/s 739 mmHg 77%
    04:00 +16°C° 0 mm 2 m/s 739 mmHg 77%
    05:00 +17°C° 0 mm 2 m/s 739 mmHg 76%
    06:00 +17°C° 0 mm 2 m/s 739 mmHg 76%
    07:00 +18°C° 0.2 mm 2 m/s 739 mmHg 73%
    08:00 +20°C° 0.2 mm 3 m/s 739 mmHg 71%
    09:00 +21°C° 0 mm 3 m/s 739 mmHg 68%
    10:00 +22°C° 1.4 mm 4 m/s 739 mmHg 64%
    11:00 +23°C° 1.4 mm 4 m/s 739 mmHg 61%
    12:00 +25°C° 1.4 mm 4 m/s 738 mmHg 58%
    13:00 +25°C° 1.6 mm 5 m/s 738 mmHg 60%
    14:00 +25°C° 1.6 mm 5 m/s 738 mmHg 62%
    15:00 +23°C° 1.6 mm 5 m/s 738 mmHg 64%
    16:00 +22°C° 1.3 mm 5 m/s 738 mmHg 70%
    17:00 +21°C° 1.3 mm 5 m/s 738 mmHg 76%
    18:00 +20°C° 1.3 mm 4 m/s 738 mmHg 81%
    19:00 +19°C° 0.5 mm 4 m/s 737 mmHg 84%
    20:00 +18°C° 0.5 mm 4 m/s 737 mmHg 86%
    21:00 +18°C° 0.5 mm 3 m/s 737 mmHg 88%
    22:00 +18°C° 0.5 mm 3 m/s 737 mmHg 88%
    23:00 +18°C° 0.5 mm 3 m/s 737 mmHg 88%

    Amanhã, 26 Maio, Domingo

    Tempo Temperatura Precipitação Vento Pressão Humidade
    00:00 +17°C° 0.5 mm 3 m/s 737 mmHg 88%
    01:00 +17°C° 0.6 mm 3 m/s 737 mmHg 88%
    02:00 +17°C° 0.6 mm 3 m/s 737 mmHg 89%
    03:00 +17°C° 0.6 mm 3 m/s 737 mmHg 89%
    04:00 +17°C° 0.8 mm 3 m/s 737 mmHg 89%
    05:00 +17°C° 0.8 mm 4 m/s 737 mmHg 89%
    06:00 +17°C° 0.8 mm 4 m/s 737 mmHg 89%
    07:00 +17°C° 0.6 mm 4 m/s 738 mmHg 86%
    08:00 +18°C° 0.6 mm 4 m/s 738 mmHg 82%
    09:00 +19°C° 0.6 mm 5 m/s 738 mmHg 78%
    10:00 +20°C° 0.7 mm 5 m/s 738 mmHg 74%
    11:00 +21°C° 0.7 mm 5 m/s 738 mmHg 69%
    12:00 +22°C° 0.7 mm 5 m/s 738 mmHg 65%
    13:00 +23°C° 0.8 mm 5 m/s 738 mmHg 63%
    14:00 +23°C° 0.8 mm 5 m/s 738 mmHg 61%
    15:00 +25°C° 0.8 mm 5 m/s 739 mmHg 59%
    16:00 +23°C° 0.6 mm 5 m/s 739 mmHg 62%
    17:00 +23°C° 0.6 mm 5 m/s 739 mmHg 64%
    18:00 +23°C° 0.6 mm 4 m/s 739 mmHg 66%
    19:00 +22°C° 0.7 mm 4 m/s 739 mmHg 69%
    20:00 +21°C° 0.7 mm 4 m/s 740 mmHg 73%
    21:00 +20°C° 0.7 mm 4 m/s 740 mmHg 77%
    22:00 +19°C° 0.1 mm 4 m/s 740 mmHg 79%
    23:00 +19°C° 0.1 mm 4 m/s 741 mmHg 80%

    Depois de amanhã, 27 Maio, Segunda-feira

    Tempo Temperatura Precipitação Vento Pressão Humidade
    00:00 +18°C° 0.1 mm 4 m/s 741 mmHg 82%
    01:00 +18°C° 0 mm 3 m/s 742 mmHg 84%
    02:00 +17°C° 0 mm 3 m/s 742 mmHg 85%
    03:00 +17°C° 0 mm 3 m/s 742 mmHg 87%
    04:00 +17°C° 0 mm 3 m/s 743 mmHg 86%
    05:00 +17°C° 0 mm 3 m/s 743 mmHg 86%
    06:00 +17°C° 0 mm 3 m/s 744 mmHg 86%
    07:00 +18°C° 0 mm 3 m/s 744 mmHg 79%
    08:00 +20°C° 0 mm 3 m/s 745 mmHg 72%
    09:00 +21°C° 0 mm 3 m/s 745 mmHg 65%
    10:00 +24°C° 0 mm 3 m/s 746 mmHg 60%
    11:00 +25°C° 0 mm 3 m/s 746 mmHg 54%
    12:00 +26°C° 0 mm 3 m/s 746 mmHg 49%
    13:00 +26°C° 0 mm 3 m/s 746 mmHg 47%
    14:00 +27°C° 0 mm 3 m/s 746 mmHg 45%
    15:00 +27°C° 0 mm 3 m/s 746 mmHg 44%
    16:00 +27°C° 0 mm 3 m/s 746 mmHg 46%
    17:00 +27°C° 0 mm 3 m/s 746 mmHg 49%
    18:00 +26°C° 0 mm 2 m/s 746 mmHg 52%
    19:00 +25°C° 0 mm 2 m/s 746 mmHg 55%
    20:00 +23°C° 0 mm 1 m/s 747 mmHg 58%
    21:00 +22°C° 0 mm 1 m/s 747 mmHg 61%
    22:00 +21°C° 0 mm 1 m/s 747 mmHg 63%
    23:00 +21°C° 0 mm 1 m/s 747 mmHg 65%

    28 Maio, Terça-feira

    Tempo Temperatura Precipitação Vento Pressão Humidade
    00:00 +20°C° 0 mm 1 m/s 747 mmHg 66%
    01:00 +20°C° 0 mm 1 m/s 747 mmHg 68%
    02:00 +20°C° 0 mm 1 m/s 747 mmHg 69%
    03:00 +19°C° 0 mm 1 m/s 748 mmHg 70%
    04:00 +20°C° 0 mm 1 m/s 748 mmHg 71%
    05:00 +20°C° 0 mm 1 m/s 748 mmHg 71%
    06:00 +20°C° 0 mm 1 m/s 748 mmHg 71%
    07:00 +22°C° 0 mm 1 m/s 748 mmHg 66%
    08:00 +24°C° 0 mm 1 m/s 748 mmHg 60%
    09:00 +25°C° 0 mm 1 m/s 749 mmHg 54%
    10:00 +26°C° 0 mm 1 m/s 749 mmHg 50%
    11:00 +27°C° 0 mm 1 m/s 748 mmHg 47%
    12:00 +28°C° 0 mm 2 m/s 748 mmHg 43%
    13:00 +29°C° 0 mm 2 m/s 748 mmHg 42%
    14:00 +29°C° 0 mm 2 m/s 748 mmHg 42%
    15:00 +30°C° 0 mm 2 m/s 748 mmHg 41%
    16:00 +29°C° 0 mm 2 m/s 748 mmHg 46%
    17:00 +28°C° 0 mm 2 m/s 748 mmHg 50%
    18:00 +27°C° 0 mm 2 m/s 747 mmHg 55%
    19:00 +26°C° 0 mm 2 m/s 747 mmHg 58%
    20:00 +25°C° 0 mm 2 m/s 747 mmHg 62%
    21:00 +23°C° 0 mm 2 m/s 747 mmHg 65%
    22:00 +23°C° 0 mm 2 m/s 747 mmHg 67%
    23:00 +22°C° 0 mm 1 m/s 747 mmHg 68%

    29 Maio, Quarta-feira

    Tempo Temperatura Precipitação Vento Pressão Humidade
    00:00 +21°C° 0 mm 1 m/s 747 mmHg 70%
    01:00 +21°C° 0 mm 1 m/s 747 mmHg 71%
    02:00 +20°C° 0 mm 2 m/s 747 mmHg 72%
    03:00 +20°C° 0 mm 2 m/s 747 mmHg 73%
    04:00 +20°C° 0 mm 2 m/s 747 mmHg 74%
    05:00 +20°C° 0 mm 2 m/s 747 mmHg 75%
    06:00 +20°C° 0 mm 2 m/s 747 mmHg 76%
    07:00 +21°C° 0 mm 3 m/s 747 mmHg 70%
    08:00 +23°C° 0 mm 4 m/s 747 mmHg 63%
    09:00 +26°C° 0 mm 5 m/s 747 mmHg 57%
    10:00 +27°C° 0 mm 5 m/s 747 mmHg 55%
    11:00 +27°C° 0 mm 5 m/s 747 mmHg 53%
    12:00 +28°C° 0 mm 6 m/s 747 mmHg 51%
    13:00 +28°C° 0 mm 5 m/s 747 mmHg 50%
    14:00 +29°C° 0 mm 5 m/s 747 mmHg 49%
    15:00 +29°C° 0 mm 5 m/s 747 mmHg 48%
    16:00 +29°C° 0 mm 5 m/s 746 mmHg 50%
    17:00 +28°C° 0 mm 4 m/s 746 mmHg 53%
    18:00 +28°C° 0 mm 4 m/s 746 mmHg 55%
    19:00 +27°C° 0 mm 4 m/s 746 mmHg 57%
    20:00 +25°C° 0 mm 3 m/s 746 mmHg 60%
    21:00 +24°C° 0 mm 3 m/s 746 mmHg 63%
    22:00 +22°C° 0 mm 3 m/s 746 mmHg 64%
    23:00 +22°C° 0 mm 3 m/s 746 mmHg 65%

    30 Maio, Quinta-feira

    Tempo Temperatura Precipitação Vento Pressão Humidade
    00:00 +21°C° 0 mm 3 m/s 746 mmHg 65%
    01:00 +20°C° 0 mm 3 m/s 746 mmHg 67%
    02:00 +20°C° 0 mm 3 m/s 746 mmHg 69%
    03:00 +20°C° 0 mm 3 m/s 746 mmHg 70%
    04:00 +20°C° 0 mm 3 m/s 746 mmHg 70%
    05:00 +20°C° 0 mm 3 m/s 746 mmHg 69%
    06:00 +20°C° 0 mm 3 m/s 746 mmHg 68%
    07:00 +22°C° 0 mm 4 m/s 746 mmHg 62%
    08:00 +23°C° 0 mm 4 m/s 747 mmHg 56%
    09:00 +26°C° 0 mm 4 m/s 747 mmHg 50%
    10:00 +28°C° 0 mm 4 m/s 747 mmHg 46%
    11:00 +29°C° 0 mm 4 m/s 747 mmHg 43%
    12:00 +30°C° 0 mm 4 m/s 747 mmHg 39%
    13:00 +30°C° 0 mm 4 m/s 746 mmHg 38%
    14:00 +32°C° 0 mm 4 m/s 746 mmHg 38%
    15:00 +32°C° 0 mm 4 m/s 746 mmHg 38%
    16:00 +31°C° 0 mm 3 m/s 746 mmHg 41%
    17:00 +30°C° 0 mm 3 m/s 746 mmHg 43%
    18:00 +30°C° 0 mm 3 m/s 746 mmHg 46%
    19:00 +28°C° 0 mm 2 m/s 746 mmHg 50%
    20:00 +27°C° 0 mm 2 m/s 746 mmHg 53%
    21:00 +25°C° 0 mm 2 m/s 746 mmHg 56%
    22:00 +24°C° 0 mm 2 m/s 746 mmHg 58%
    23:00 +24°C° 0 mm 2 m/s 746 mmHg 60%
    Mostrar mais